Location: Newark
(48.1500°N, 2.9667°W)
Time: 01:55:56
(UTC+00:00)

A-11 Canister half - Pass Details

Date: 31 January 2020
Orbit: 1517 x 1683 km, 47.2° (Epoch: 21 February)

Event Time Altitude Azimuth Distance (km) Brightness Sun altitude
Rises 20:01:42 0° 187° (S) 4,806 11.6 -28.8°
Reaches altitude 10° 20:05:54 10° 172° (S) 3,794 10.9 -29.5°
Enters shadow 20:07:33 14° 163° (SSE) 3,477 10.6 -29.8°
